Weather History for Albuquerque Double Eagle, NM

Change the Weather History Date:

Friday, November 16, 2012

  Actual Average Record
Temperature  
Mean Temperature 44 °F -  
Max Temperature 55 °F - - ()
Min Temperature 32 °F - - ()
Degree Days  
Heating Degree Days 22    
Moisture  
Dew Point 15 °F    
Average Humidity 36    
Maximum Humidity 49    
Minimum Humidity 20    
Precipitation  
Precipitation 0.00 in - - ()
Sea Level Pressure  
Sea Level Pressure 30.31 in    
Wind  
Wind Speed 6 mph (NNE)    
Max Wind Speed 14 mph    
Max Gust Speed 17 mph    
Visibility 10 miles    
Events      
T = Trace of Precipitation, MM = Missing Value Source: NWS Daily Summary

Daily Weather History Graph

Daily Weather History Graph

Search for Another Location

Airport:

Trip Planner

Search our weather history database for the weather conditions in past years. The results will help you decide how hot, cold, wet, or windy it might be!

Date:

Astronomy

Nov. 16, 2012 Rise Set
Actual Time 6:43 AM MST 5:00 PM MST
Civil Twilight 6:16 AM MST 5:27 PM MST
Nautical Twilight 5:45 AM MST 5:58 PM MST
Astronomical Twilight 5:15 AM MST 6:28 PM MST
Moon 9:38 AM MST (11/16) 8:04 PM MST (11/16)
Length of Visible Light 11h 11m
Length of Day
10h 16m
Waxing Crescent, 12% of the Moon is Illuminated
Nov 16
Waxing Crescent
Nov 20
First Quarter
Nov 28
Full
Dec 6
Last Quarter
Dec 13
New

Hourly Weather History & Observations

Time (MST) Temp. Windchill Dew Point Humidity Pressure Visibility Wind Dir Wind Speed Gust Speed Precip Events Conditions
12:15 AM 42.8 °F 35.8 °F 17.6 °F 36% 30.37 in 10.0 mi SE 13.8 mph - N/A   Clear
12:35 AM 42.8 °F 36.2 °F 19.4 °F 39% 30.36 in 10.0 mi SE 12.7 mph 17.3 mph N/A   Clear
12:55 AM 42.8 °F 37.0 °F 19.4 °F 39% 30.36 in 10.0 mi SE 10.4 mph - N/A   Clear
1:15 AM 41.0 °F 35.8 °F 17.6 °F 39% 30.35 in 10.0 mi SE 8.1 mph - N/A   Clear
1:35 AM 39.2 °F - 15.8 °F 39% 30.36 in 10.0 mi Calm Calm - N/A   Clear
1:55 AM 41.0 °F - 15.8 °F 36% 30.35 in 10.0 mi Calm Calm - N/A   Clear
2:15 AM 41.0 °F 35.8 °F 15.8 °F 36% 30.35 in 10.0 mi North 8.1 mph - N/A   Clear
2:35 AM 39.2 °F 35.0 °F 15.8 °F 39% 30.36 in 10.0 mi North 5.8 mph - N/A   Clear
2:55 AM 39.2 °F 35.0 °F 15.8 °F 39% 30.35 in 10.0 mi North 5.8 mph - N/A   Clear
3:15 AM 39.2 °F 37.0 °F 17.6 °F 42% 30.34 in 10.0 mi North 3.5 mph - N/A   Clear
3:35 AM 39.2 °F 33.6 °F 19.4 °F 45% 30.33 in 10.0 mi North 8.1 mph - N/A   Clear
3:55 AM 37.4 °F 32.1 °F 19.4 °F 48% 30.33 in 10.0 mi North 6.9 mph - N/A   Clear
4:15 AM 37.4 °F - 19.4 °F 48% 30.33 in 10.0 mi Calm Calm - N/A   Clear
4:35 AM 37.4 °F - 19.4 °F 48% 30.33 in 10.0 mi Calm Calm - N/A   Clear
5:50 AM 37.4 °F - 19.4 °F 48% 30.33 in 10.0 mi Calm Calm - N/A   Clear
7:50 AM 39.2 °F 33.6 °F 21.2 °F 49% 30.35 in 10.0 mi North 8.1 mph - N/A   Mostly Cloudy
8:50 AM 41.0 °F 37.1 °F 21.2 °F 45% 30.36 in 10.0 mi North 5.8 mph - N/A   Mostly Cloudy
9:50 AM 44.6 °F 40.7 °F 21.2 °F 39% 30.36 in 10.0 mi North 6.9 mph - N/A   Mostly Cloudy
10:50 AM 50.0 °F - 17.6 °F 28% 30.36 in 10.0 mi Calm Calm - N/A   Mostly Cloudy
11:50 AM 51.8 °F - 17.6 °F 26% 30.31 in 10.0 mi Variable 4.6 mph - N/A   Partly Cloudy
12:50 PM 53.6 °F - 15.8 °F 22% 30.28 in 10.0 mi South 3.5 mph - N/A   Partly Cloudy
1:50 PM 55.4 °F - 15.8 °F 21% 30.25 in 10.0 mi Variable 5.8 mph - N/A   Scattered Clouds
2:50 PM 55.4 °F - 15.8 °F 21% 30.24 in 10.0 mi Variable 6.9 mph - N/A   Scattered Clouds
3:50 PM 55.4 °F - 14.0 °F 20% 30.24 in 10.0 mi Variable 5.8 mph - N/A   Scattered Clouds
4:50 PM 53.6 °F - 14.0 °F 21% 30.23 in 10.0 mi Variable 6.9 mph - N/A   Scattered Clouds
5:50 PM 44.6 °F - 12.2 °F 27% 30.24 in 10.0 mi Calm Calm - N/A   Scattered Clouds
9:15 PM 33.8 °F - 8.6 °F 35% 30.26 in 10.0 mi Calm Calm - N/A   Clear
9:35 PM 32.0 °F - 8.6 °F 38% 30.26 in 10.0 mi Calm Calm - N/A   Clear
9:55 PM 32.0 °F - 6.8 °F 35% 30.26 in 10.0 mi Calm Calm - N/A   Clear
10:15 PM 33.8 °F - 8.6 °F 35% 30.25 in 10.0 mi Calm Calm - N/A   Clear
10:35 PM 35.6 °F - 8.6 °F 33% 30.26 in 10.0 mi Calm Calm - N/A   Clear
10:55 PM 32.0 °F - 8.6 °F 38% 30.26 in 10.0 mi Calm Calm - N/A   Clear
11:15 PM 32.0 °F - 8.6 °F 38% 30.26 in 10.0 mi Calm Calm - N/A   Clear
11:35 PM 32.0 °F - 8.6 °F 38% 30.26 in 10.0 mi Calm Calm - N/A   Clear
11:55 PM 32.0 °F - 8.6 °F 38% 30.27 in 10.0 mi Calm Calm - N/A   Clear